Regional Weather Roundup
Issued by NWS

Home | Current Version | Previous Version | Text Only | Print | Product List | Glossary Off
Versions: 1 2 3 4 5 6 7 8 9 10 11 12 13 14 15 16 17 18 19 20 21 22 23 24 25 26 27 28 29 30 31 32 33 34 35 36 37 38 39 40 41 42 43 44 45 46 47 48 49 50

000
ASUS43 KLOT 230603
RWRIL

ILLINOIS REGIONAL WEATHER ROUNDUP
NATIONAL WEATHER SERVICE CHICAGO/ROMEOVILLE IL
1200 AM CST THU NOV 23 2017

NOTE: "FAIR" INDICATES FEW OR NO CLOUDS BELOW 12,000 FEET WITH NO
SIGNIFICANT WEATHER AND/OR OBSTRUCTIONS TO VISIBILITY.

* THESE STATIONS ARE NOT UNDER NWS QUALITY CONTROL. THEY ALSO MAY NOT
  REPORT WEATHER SUCH AS PRECIPITATION OR FOG.

ILZ001-002-007-009-015-016-024-230700-
NORTHWEST ILLINOIS

CITY           SKY/WX    TMP DP  RH WIND       PRES   REMARKS
MOLINE         CLOUDY    34  18  52 S7        30.15F WCI  28
6HR MIN TEMP:  32; 6HR MAX TEMP:  34;

STERLING*        N/A     32  22  66 MISG        N/A
SAVANNA*       CLOUDY    32  21  64 S8        30.13F WCI  25
$$

ILZ003-004-008-010-011-017-018-230700-
NORTH CENTRAL ILLINOIS

CITY           SKY/WX    TMP DP  RH WIND       PRES   REMARKS
ROCKFORD       CLOUDY    31  22  69 S6        30.18S WCI  25
6HR MIN TEMP:  30; 6HR MAX TEMP:  32;

FREEPORT*      CLOUDY    31  19  62 S9        30.14F WCI  23
ROCHELLE*      CLOUDY    31  23  74 S7        30.18R WCI  24
DE KALB*       CLOUDY    31  22  69 SW8       30.17S WCI  23
PERU*          CLOUDY    31  21  65 S7        30.19S WCI  24
$$

ILZ005-006-012>014-019>023-230700-
NORTHEAST ILLINOIS

CITY           SKY/WX    TMP DP  RH WIND       PRES   REMARKS
CHICAGO-OHARE  CLOUDY    32  17  54 SW9       30.16F WCI  24
6HR MIN TEMP:  31; 6HR MAX TEMP:  32;

CHICAGO-MIDWAY NOT AVBL
AURORA         CLOUDY    31  21  66 S8        30.17F WCI  23
6HR MIN TEMP:  27; 6HR MAX TEMP:  31;

LANSING*       CLOUDY    30  23  75 S8        30.19F WCI  22
JOLIET*        CLOUDY    33  21  63 S6        30.19F WCI  27
WAUKEGAN       CLOUDY    31  19  61 SW9       30.15F WCI  23
6HR MIN TEMP:  29; 6HR MAX TEMP:  31;

DUPAGE AIRPORT CLOUDY    31  20  63 SW9       30.16F WCI  23
6HR MIN TEMP:  25; 6HR MAX TEMP:  31;

KANKAKEE*      CLOUDY    31  21  66 SW5       30.21F WCI  26
WHEELING       CLOUDY    33  18  53 S7        30.18F WCI  27
6HR MIN TEMP:  31; 6HR MAX TEMP:  33;

MORRIS*        CLOUDY    32  22  66 SW6       30.18F WCI  26
ROMEOVILLE*    CLOUDY    31  20  64 SW8       30.18F WCI  24
NORTHERLY ISL    N/A     32  16  52 S6          N/A  WCI  26
$$

LMZ740>746-230700-
SOUTHERN LAKE MICHIGAN

STATION/POSITION SKY/WX   TEMP    WIND        PRES    VSBY  WAVE
                          AIR SEA DIR/SP/G                  HT/PER
                          (F)     (DEG/KT/KT) (MB)    (MI)  (FT/S)
SOUTHERN BUOY              35 47  260/ 16/ 19 1022.1          3/ 4
HARRISON CRIB              34     220/ 13/ 17   N/A
BURNHAM HARBOR             32     200/  5/ 10   N/A
CALUMET HARBOR             32     200/ 10/ 13 1021.4F
BURNS HARBOR               31     200/  8/ 10 1022.7F
MICHIGAN CITY              30     180/  9/ 11   N/A
$$

ILZ025>027-034>036-040-047-049-050-058-095>099-230700-
WEST-CENTRAL ILLINOIS

CITY           SKY/WX    TMP DP  RH WIND       PRES   REMARKS
QUINCY         CLEAR     29  20  69 SW6       30.18F WCI  23
GALESBURG*     CLOUDY    32  22  68 S6        30.17F WCI  26
MACOMB*        CLEAR     29  20  69 S5        30.20F WCI  24
JACKSONVILLE*  CLOUDY    31  20  63 S7        30.20F WCI  25
PITTSFIELD*    CLOUDY    31  22  68 S3        30.20F
$$

ILZ028>032-037-038-041>044-048-051>054-059>061-230700-
CENTRAL ILLINOIS

CITY           SKY/WX    TMP DP  RH WIND       PRES   REMARKS
PONTIAC        CLOUDY    31  23  72 S7        30.20F WCI  25
BLOOMINGTON    MOCLDY    27  21  78 S8        30.20F WCI  19
DECATUR        CLOUDY    30  23  75 S5        30.22F WCI  25
PEORIA         CLOUDY    33  21  61 S7        30.20F WCI  27
6HR MIN TEMP:  30; 6HR MAX TEMP:  33; 6HR PCP: TRACE;

LACON*         CLOUDY    32  19  57 S6        30.18F WCI  27
LINCOLN*       CLOUDY    31  24  74 S6        30.21F WCI  25
SPRINGFIELD    CLOUDY    33  23  66 S8        30.21F WCI  26
6HR MIN TEMP:  29; 6HR MAX TEMP:  33;

TAYLORVILLE    MOCLDY    29  23  76 S5        30.22F WCI  24
6HR MIN TEMP:  28; 6HR MAX TEMP:  31;

$$

ILZ033-039-045-046-055>057-062-063-230700-
EAST-CENTRAL ILLINOIS

CITY           SKY/WX    TMP DP  RH WIND       PRES   REMARKS
CHAMPAIGN      PTCLDY    29  23  78 S7        30.22F WCI  22
DANVILLE*      CLOUDY    28  24  84 CALM      30.20S
RANTOUL*       CLOUDY    32  25  76 S3        30.21F
MATTOON        PTCLDY    29  21  72 CALM      30.22F
PARIS*         CLOUDY    28  26  89 CALM      30.24F
$$

ILZ079-100>102-230700-
SOUTHWEST ILLINOIS

CITY           SKY/WX    TMP DP  RH WIND       PRES   REMARKS
ALTON          MOCLDY    31  25  80 CALM      30.23S
BELLEVILLE     CLOUDY    29  24  81 CALM      30.22F
CAHOKIA*       CLOUDY    33  21  61 CALM      30.24F
SPARTA*        PTCLDY    31  23  73 CALM      30.25S
$$

ILZ064>066-069>071-074>076-080>082-084>086-088>090-092>094-230700-
SOUTH-CENTRAL ILLINOIS

CITY           SKY/WX    TMP DP  RH WIND       PRES   REMARKS
CARBONDALE     PTCLDY    24  23  96 CALM      30.25F
6HR MIN TEMP:  22; 6HR MAX TEMP:  31;

CAIRO*         PTCLDY    26  23  90 CALM      30.25F
EFFINGHAM*     PTCLDY    27  25  92 CALM      30.25F
MARION         PTCLDY    27  26  97 CALM      30.26S
MT. VERNON     CLOUDY    22  20  92 CALM      30.24F
CENTRALIA*     PTCLDY    26  25  93 CALM      30.23F
SALEM*         PTCLDY    30  23  75 CALM      30.24S
METROPOLIS*    PTCLDY    25  21  84 CALM      30.25F
$$

ILZ067-068-072-073-078-083-087-091-230700-
SOUTHEAST ILLINOIS

CITY           SKY/WX    TMP DP  RH WIND       PRES   REMARKS
LAWRENCEVILLE  MOCLDY    29  24  82 CALM      30.25F
FLORA*         PTCLDY    25  23  92 CALM      30.25S
FAIRFIELD*     CLOUDY    25  22  89 CALM      30.24S
HARRISBURG*    MOCLDY    26  24  92 CALM      30.26F
ROBINSON*      PTCLDY    26  24  94 CALM      30.25F
CARMI*         CLOUDY    25  23  92 CALM      30.24F
$$

ABBREVIATIONS USED IN REMARKS
   TC - TEMPERATURE IN CELSIUS
  WCI - WIND CHILL INDEX
   HX - HEAT INDEX
  VSB - VISIBILITY
$$




USA.gov is the U.S. government's official web portal to all federal, state and local government web resources and services.